sat.trackr.live / text

‹ back to catalog

STARLINK-36816

NORAD 67891 · 2026-035N

PAYLOAD ACTIVE UNKNOWN

§ Identity

Operator
Country
US
Launch date
2026-02-21
Launch site
AFWTR
Launch vehicle
Mass (kg)
RCS (m²)

Purposes: comms

External: N2YO · Heavens-Above · Gunter

§ Orbital elements

Epoch: 2026-05-24T18:35:10.055616Z

Period
93.91 min
Inclination
97.2853°
Eccentricity
0.0001720
Mean motion
15.33447140 rev/d
Perigee alt
464.4 km
Apogee alt
466.7 km
Semi-major
6,843.7 km
B*
2.4876e-4
RAAN
77.3237°
Arg perigee
88.9203°
Mean anomaly
271.2237°
Rev number
1,558

§ Raw data

STARLINK-368161 67891U 26035N   26144.77442194  .00007965  00000+0  24876-3 0  99982 67891  97.2853  77.3237 0001720  88.9203 271.2237 15.33447140 15581

JSON: /api/v1/satellites/67891 · /tle

For live sub-satellite position, see the globe view (requires WebGL).

§ Visibility from observer

Set your observer location to see the next 7 days of passes ≥ 10°. The values pass through the URL so the page stays shareable.

No JS? Fill the form by hand. The geolocation button needs JavaScript.